| time (UTC) | temp F | wind direction | speed MPH | gust MPH | rain 1hr in | rain 24hr in | rain mn in | humidity % | barometer mb |
| 20260906160630 | 72 | 336 | 1.0 | 3.0 | 0.00 | 0.00 | 0.00 | 33 | 1015.2 |
| 20260906155614 | 71 | 274 | 2.0 | 4.0 | 0.00 | 0.00 | 0.00 | 34 | 1015.3 |
| 20260906154625 | 70 | 273 | 1.0 | 2.0 | 0.00 | 0.00 | 0.00 | 36 | 1015.3 |
| 20260906153617 | 68 | 273 | 0.0 | 2.0 | 0.00 | 0.00 | 0.00 | 41 | 1015.3 |
| 20260906152612 | 67 | 273 | 1.0 | 2.0 | 0.00 | 0.00 | 0.00 | 50 | 1015.4 |
| 20260906151644 | 66 | 273 | 1.0 | 4.0 | 0.00 | 0.00 | 0.00 | 52 | 1015.3 |
| 20260906150613 | 67 | 59 | 1.0 | 3.0 | 0.00 | 0.00 | 0.00 | 50 | 1015.3 |
| 20260906145615 | 65 | 98 | 2.0 | 3.0 | 0.00 | 0.00 | 0.00 | 51 | 1015.3 |
| 20260906144627 | 64 | 98 | 1.0 | 2.0 | 0.00 | 0.00 | 0.00 | 46 | 1015.3 |
| 20260906143621 | 62 | 98 | 1.0 | 2.0 | 0.00 | 0.00 | 0.00 | 46 | 1015.2 |
| 20260906142613 | 60 | 98 | 0.0 | 1.0 | 0.00 | 0.00 | 0.00 | 48 | 1015.2 |
| 20260906141624 | 59 | 98 | 0.0 | 1.0 | 0.00 | 0.00 | 0.00 | 50 | 1015.1 |
| 20260906140619 | 57 | 98 | 0.0 | 3.0 | 0.00 | 0.00 | 0.00 | 52 | 1015.1 |
| 20260906135621 | 56 | 98 | 0.0 | 2.0 | 0.00 | 0.00 | 0.00 | 50 | 1014.9 |
| 20260906134633 | 55 | 98 | 0.0 | 3.0 | 0.00 | 0.00 | 0.00 | 50 | 1014.8 |
| 20260906133623 | 55 | 98 | 1.0 | 4.0 | 0.00 | 0.00 | 0.00 | 49 | 1014.8 |
| 20260906132618 | 55 | 98 | 0.0 | 3.0 | 0.00 | 0.00 | 0.00 | 51 | 1014.7 |
| 20260906131629 | 54 | 98 | 1.0 | 3.0 | 0.00 | 0.00 | 0.00 | 52 | 1014.5 |
| 20260906130621 | 54 | 98 | 0.0 | 0.0 | 0.00 | 0.00 | 0.00 | 53 | 1014.6 |
| 20260906125622 | 54 | 98 | 0.0 | 3.0 | 0.00 | 0.00 | 0.00 | 53 | 1014.6 |
| 20260906124618 | 54 | 98 | 2.0 | 4.0 | 0.00 | 0.00 | 0.00 | 53 | 1014.5 |
| 20260906123630 | 54 | 98 | 3.0 | 4.0 | 0.00 | 0.00 | 0.00 | 53 | 1014.4 |
| 20260906122621 | 53 | 98 | 2.0 | 4.0 | 0.00 | 0.00 | 0.00 | 54 | 1014.3 |
| 20260906121612 | 53 | 98 | 0.0 | 1.0 | 0.00 | 0.00 | 0.00 | 55 | 1014.5 |
| 20260906120628 | 53 | 98 | 0.0 | 4.0 | 0.00 | 0.00 | 0.00 | 56 | 1014.4 |
| 20260906115628 | 52 | 101 | 1.0 | 3.0 | 0.00 | 0.00 | 0.00 | 57 | 1014.4 |
| 20260906114619 | 51 | 101 | 1.0 | 3.0 | 0.00 | 0.00 | 0.00 | 59 | 1014.3 |
| 20260906113630 | 51 | 101 | 0.0 | 6.0 | 0.00 | 0.00 | 0.00 | 58 | 1014.3 |
| 20260906112623 | 53 | 140 | 4.0 | 6.0 | 0.00 | 0.00 | 0.00 | 55 | 1014.4 |
| 20260906111613 | 54 | 293 | 0.0 | 4.0 | 0.00 | 0.00 | 0.00 | 54 | 1014.3 |
| 20260906110623 | 54 | 18 | 0.0 | 3.0 | 0.00 | 0.00 | 0.00 | 53 | 1014.3 |
| 20260906105623 | 54 | 18 | 2.0 | 3.0 | 0.00 | 0.00 | 0.00 | 54 | 1014.2 |
| 20260906104639 | 53 | 18 | 2.0 | 3.0 | 0.00 | 0.00 | 0.00 | 55 | 1014.2 |
| 20260906103628 | 53 | 18 | 1.0 | 3.0 | 0.00 | 0.00 | 0.00 | 56 | 1014.1 |
| 20260906102617 | 52 | 287 | 1.0 | 3.0 | 0.00 | 0.00 | 0.00 | 57 | 1014.2 |
| 20260906101626 | 53 | 286 | 1.0 | 2.0 | 0.00 | 0.00 | 0.00 | 57 | 1014.0 |
| 20260906100643 | 54 | 286 | 0.0 | 3.0 | 0.00 | 0.00 | 0.00 | 57 | 1014.1 |
| 20260906095623 | 55 | 286 | 0.0 | 5.0 | 0.00 | 0.00 | 0.00 | 55 | 1014.1 |
| 20260906094613 | 55 | 114 | 0.0 | 0.0 | 0.00 | 0.00 | 0.00 | 52 | 1013.9 |
| 20260906093623 | 55 | 114 | 0.0 | 0.0 | 0.00 | 0.00 | 0.00 | 52 | 1013.8 |
| 20260906092637 | 55 | 114 | 0.0 | 0.0 | 0.00 | 0.00 | 0.00 | 53 | 1013.7 |
| 20260906091629 | 54 | 114 | 0.0 | 0.0 | 0.00 | 0.00 | 0.00 | 53 | 1013.7 |
| 20260906090620 | 55 | 125 | 0.0 | 0.0 | 0.00 | 0.00 | 0.00 | 53 | 1013.7 |
| 20260906085621 | 55 | 125 | 0.0 | 0.0 | 0.00 | 0.00 | 0.00 | 51 | 1013.6 |
| 20260906084616 | 56 | 125 | 0.0 | 0.0 | 0.00 | 0.00 | 0.00 | 50 | 1013.6 |
| 20260906083626 | 56 | 125 | 0.0 | 0.0 | 0.00 | 0.00 | 0.00 | 50 | 1013.5 |
| 20260906082618 | 56 | 128 | 0.0 | 0.0 | 0.00 | 0.00 | 0.00 | 50 | 1013.7 |
| 20260906081612 | 57 | 128 | 0.0 | 3.0 | 0.00 | 0.00 | 0.00 | 48 | 1013.7 |
| 20260906080624 | 58 | 131 | 1.0 | 2.0 | 0.00 | 0.00 | 0.00 | 48 | 1013.7 |
| 20260906075645 | 57 | 131 | 1.0 | 2.0 | 0.00 | 0.00 | 0.00 | 48 | 1013.7 |
| 20260906074615 | 57 | 131 | 1.0 | 4.0 | 0.00 | 0.00 | 0.00 | 48 | 1013.8 |
| 20260906073647 | 58 | 131 | 1.0 | 3.0 | 0.00 | 0.00 | 0.00 | 49 | 1013.8 |
| 20260906072621 | 59 | 131 | 0.0 | 2.0 | 0.00 | 0.00 | 0.00 | 47 | 1013.7 |
| 20260906071616 | 60 | 131 | 0.0 | 2.0 | 0.00 | 0.00 | 0.00 | 46 | 1013.5 |
| 20260906070627 | 61 | 131 | 1.0 | 3.0 | 0.00 | 0.00 | 0.00 | 43 | 1013.4 |
| 20260906065627 | 62 | 131 | 0.0 | 2.0 | 0.00 | 0.00 | 0.00 | 43 | 1013.5 |
| 20260906064623 | 63 | 131 | 1.0 | 3.0 | 0.00 | 0.00 | 0.00 | 41 | 1013.3 |
| 20260906063615 | 64 | 132 | 0.0 | 2.0 | 0.00 | 0.00 | 0.00 | 39 | 1013.4 |
| 20260906062628 | 64 | 132 | 0.0 | 2.0 | 0.00 | 0.00 | 0.00 | 38 | 1013.5 |
| 20260906061640 | 64 | 131 | 1.0 | 3.0 | 0.00 | 0.00 | 0.00 | 38 | 1013.4 |
| 20260906060611 | 64 | 131 | 2.0 | 3.0 | 0.00 | 0.00 | 0.00 | 38 | 1013.3 |
| 20260906055617 | 63 | 131 | 0.0 | 3.0 | 0.00 | 0.00 | 0.00 | 39 | 1013.4 |
| 20260906054629 | 64 | 131 | 0.0 | 1.0 | 0.00 | 0.00 | 0.00 | 39 | 1013.5 |
| 20260906053620 | 64 | 131 | 0.0 | 1.0 | 0.00 | 0.00 | 0.00 | 38 | 1013.3 |
| 20260906052612 | 64 | 131 | 0.0 | 2.0 | 0.00 | 0.00 | 0.00 | 38 | 1013.3 |
| 20260906051648 | 65 | 131 | 0.0 | 0.0 | 0.00 | 0.00 | 0.00 | 38 | 1013.3 |
| 20260906050618 | 65 | 131 | 0.0 | 2.0 | 0.00 | 0.00 | 0.00 | 38 | 1013.3 |
| 20260906045619 | 65 | 131 | 2.0 | 6.0 | 0.00 | 0.00 | 0.00 | 38 | 1013.3 |
| 20260906044631 | 64 | 158 | 2.0 | 6.0 | 0.00 | 0.00 | 0.00 | 41 | 1013.3 |
| 20260906043627 | 61 | 170 | 3.0 | 5.0 | 0.00 | 0.00 | 0.00 | 44 | 1013.3 |
| 20260906042617 | 61 | 192 | 0.0 | 4.0 | 0.00 | 0.00 | 0.00 | 47 | 1013.5 |
| 20260906041627 | 63 | 194 | 3.0 | 6.0 | 0.00 | 0.00 | 0.00 | 45 | 1013.3 |
| 20260906040618 | 66 | 220 | 5.0 | 8.0 | 0.00 | 0.00 | 0.00 | 41 | 1013.2 |
| 20260906035623 | 71 | 117 | 2.0 | 4.0 | 0.00 | 0.00 | 0.00 | 28 | 1012.9 |
| 20260906034613 | 74 | 62 | 0.0 | 6.0 | 0.00 | 0.00 | 0.00 | 22 | 1012.8 |
| 20260906033624 | 74 | 79 | 5.0 | 10.0 | 0.00 | 0.00 | 0.00 | 22 | 1012.7 |
| 20260906032615 | 74 | 76 | 6.0 | 10.0 | 0.00 | 0.00 | 0.00 | 23 | 1012.7 |
| 20260906031631 | 74 | 53 | 5.0 | 9.0 | 0.00 | 0.00 | 0.00 | 24 | 1012.8 |
| 20260906030623 | 74 | 67 | 5.0 | 10.0 | 0.00 | 0.00 | 0.00 | 24 | 1012.8 |
| 20260906025625 | 74 | 60 | 6.0 | 10.0 | 0.00 | 0.00 | 0.00 | 24 | 1012.8 |
| 20260906024616 | 74 | 82 | 8.0 | 11.0 | 0.00 | 0.00 | 0.00 | 25 | 1012.8 |
| 20260906023633 | 74 | 57 | 8.0 | 11.0 | 0.00 | 0.00 | 0.00 | 26 | 1012.7 |
| 20260906022623 | 73 | 83 | 5.0 | 8.0 | 0.00 | 0.00 | 0.00 | 27 | 1012.7 |
| 20260906021614 | 74 | 74 | 3.0 | 5.0 | 0.00 | 0.00 | 0.00 | 27 | 1012.7 |
| 20260906020625 | 76 | 155 | 3.0 | 4.0 | 0.00 | 0.00 | 0.00 | 29 | 1012.7 |
| 20260906015652 | 78 | 236 | 0.0 | 2.0 | 0.00 | 0.00 | 0.00 | 28 | 1012.9 |
| 20260906014621 | 79 | 236 | 2.0 | 3.0 | 0.00 | 0.00 | 0.00 | 28 | 1013.0 |
| 20260906013613 | 81 | 236 | 2.0 | 3.0 | 0.00 | 0.00 | 0.00 | 26 | 1013.0 |
| 20260906012626 | 83 | 236 | 1.0 | 2.0 | 0.00 | 0.00 | 0.00 | 22 | 1013.1 |
| 20260906011620 | 84 | 236 | 1.0 | 2.0 | 0.00 | 0.00 | 0.00 | 21 | 1013.2 |
| 20260906010612 | 85 | 236 | 2.0 | 2.0 | 0.00 | 0.00 | 0.00 | 19 | 1013.2 |
| 20260906005613 | 84 | 236 | 2.0 | 3.0 | 0.00 | 0.00 | 0.00 | 18 | 1013.1 |
| 20260906004625 | 84 | 236 | 4.0 | 7.0 | 0.00 | 0.00 | 0.00 | 19 | 1013.2 |
| 20260906003620 | 85 | 257 | 4.0 | 10.0 | 0.00 | 0.00 | 0.00 | 19 | 1013.1 |
| 20260906002631 | 85 | 244 | 3.0 | 8.0 | 0.00 | 0.00 | 0.00 | 19 | 1013.0 |
| 20260906001621 | 85 | 220 | 3.0 | 7.0 | 0.00 | 0.00 | 0.00 | 19 | 1013.0 |
| 20260906000616 | 85 | 200 | 3.0 | 7.0 | 0.00 | 0.00 | 0.00 | 19 | 1013.0 |
| 20260905235622 | 85 | 196 | 4.0 | 7.0 | 0.00 | 0.00 | 0.00 | 18 | 1013.2 |
| 20260905234614 | 85 | 248 | 4.0 | 13.0 | 0.00 | 0.00 | 0.00 | 18 | 1013.2 |
| 20260905233625 | 86 | 254 | 7.0 | 11.0 | 0.00 | 0.00 | 0.00 | 18 | 1013.3 |
| 20260905232618 | 85 | 250 | 4.0 | 7.0 | 0.00 | 0.00 | 0.00 | 18 | 1013.3 |
| 20260905231615 | 85 | 235 | 6.0 | 12.0 | 0.00 | 0.00 | 0.00 | 19 | 1013.3 |
| 20260905230625 | 85 | 266 | 4.0 | 11.0 | 0.00 | 0.00 | 0.00 | 19 | 1013.3 |
| 20260905225627 | 85 | 236 | 6.0 | 9.0 | 0.00 | 0.00 | 0.00 | 18 | 1013.3 |
| 20260905224624 | 85 | 219 | 6.0 | 11.0 | 0.00 | 0.00 | 0.00 | 18 | 1013.5 |
| 20260905223614 | 85 | 234 | 6.0 | 14.0 | 0.00 | 0.00 | 0.00 | 19 | 1013.5 |
| 20260905222626 | 85 | 228 | 5.0 | 7.0 | 0.00 | 0.00 | 0.00 | 19 | 1013.7 |
| 20260905221618 | 85 | 275 | 5.0 | 12.0 | 0.00 | 0.00 | 0.00 | 18 | 1013.7 |
| 20260905220633 | 85 | 263 | 7.0 | 14.0 | 0.00 | 0.00 | 0.00 | 19 | 1013.7 |
| 20260905215614 | 84 | 205 | 6.0 | 14.0 | 0.00 | 0.00 | 0.00 | 19 | 1013.7 |
| 20260905214625 | 84 | 274 | 6.0 | 14.0 | 0.00 | 0.00 | 0.00 | 19 | 1013.9 |
| 20260905213637 | 84 | 209 | 8.0 | 12.0 | 0.00 | 0.00 | 0.00 | 18 | 1014.1 |
| 20260905212648 | 84 | 263 | 8.0 | 11.0 | 0.00 | 0.00 | 0.00 | 19 | 1014.1 |
| 20260905211621 | 84 | 234 | 8.0 | 12.0 | 0.00 | 0.00 | 0.00 | 18 | 1014.3 |
| 20260905210613 | 84 | 252 | 7.0 | 13.0 | 0.00 | 0.00 | 0.00 | 18 | 1014.4 |
| 20260905205615 | 84 | 191 | 2.0 | 10.0 | 0.00 | 0.00 | 0.00 | 19 | 1014.5 |
| 20260905204648 | 84 | 227 | 1.0 | 9.0 | 0.00 | 0.00 | 0.00 | 19 | 1014.5 |
| 20260905203623 | 83 | 261 | 4.0 | 10.0 | 0.00 | 0.00 | 0.00 | 18 | 1014.6 |
| 20260905202614 | 83 | 207 | 7.0 | 13.0 | 0.00 | 0.00 | 0.00 | 20 | 1014.7 |
| 20260905201625 | 83 | 264 | 7.0 | 13.0 | 0.00 | 0.00 | 0.00 | 19 | 1014.8 |
| 20260905200620 | 82 | 264 | 9.0 | 14.0 | 0.00 | 0.00 | 0.00 | 19 | 1014.9 |
| 20260905195622 | 82 | 273 | 6.0 | 13.0 | 0.00 | 0.00 | 0.00 | 19 | 1015.0 |
| 20260905194613 | 82 | 214 | 6.0 | 11.0 | 0.00 | 0.00 | 0.00 | 19 | 1015.1 |
| 20260905193624 | 82 | 236 | 7.0 | 11.0 | 0.00 | 0.00 | 0.00 | 20 | 1015.2 |
| 20260905192620 | 81 | 242 | 6.0 | 11.0 | 0.00 | 0.00 | 0.00 | 20 | 1015.3 |
| 20260905191629 | 81 | 234 | 8.0 | 15.0 | 0.00 | 0.00 | 0.00 | 19 | 1015.4 |
| 20260905190621 | 81 | 265 | 7.0 | 14.0 | 0.00 | 0.00 | 0.00 | 19 | 1015.5 |
| 20260905185623 | 81 | 235 | 8.0 | 16.0 | 0.00 | 0.00 | 0.00 | 20 | 1015.6 |
| 20260905184619 | 81 | 246 | 9.0 | 16.0 | 0.00 | 0.00 | 0.00 | 20 | 1015.6 |
| 20260905183631 | 81 | 236 | 7.0 | 13.0 | 0.00 | 0.00 | 0.00 | 20 | 1015.9 |
| 20260905182622 | 80 | 256 | 12.0 | 17.0 | 0.00 | 0.00 | 0.00 | 19 | 1015.9 |
| 20260905181613 | 80 | 235 | 10.0 | 14.0 | 0.00 | 0.00 | 0.00 | 19 | 1016.0 |
| 20260905180648 | 80 | 225 | 9.0 | 13.0 | 0.00 | 0.00 | 0.00 | 20 | 1016.1 |
| 20260905175614 | 80 | 243 | 6.0 | 11.0 | 0.00 | 0.00 | 0.00 | 21 | 1016.2 |
| 20260905174626 | 79 | 228 | 6.0 | 10.0 | 0.00 | 0.00 | 0.00 | 24 | 1016.3 |
| 20260905173637 | 78 | 227 | 4.0 | 11.0 | 0.00 | 0.00 | 0.00 | 27 | 1016.3 |
| 20260905172628 | 78 | 227 | 5.0 | 12.0 | 0.00 | 0.00 | 0.00 | 26 | 1016.2 |
| 20260905171624 | 78 | 239 | 6.0 | 10.0 | 0.00 | 0.00 | 0.00 | 28 | 1016.2 |
| 20260905170615 | 77 | 249 | 5.0 | 9.0 | 0.00 | 0.00 | 0.00 | 29 | 1016.2 |
| 20260905165617 | 76 | 243 | 5.0 | 10.0 | 0.00 | 0.00 | 0.00 | 29 | 1016.1 |
| 20260905164626 | 75 | 212 | 4.0 | 6.0 | 0.00 | 0.00 | 0.00 | 34 | 1016.0 |
| 20260905163622 | 74 | 293 | 2.0 | 5.0 | 0.00 | 0.00 | 0.00 | 40 | 1016.0 |
| 20260905162614 | 73 | 300 | 1.0 | 3.0 | 0.00 | 0.00 | 0.00 | 43 | 1016.0 |
| 20260905161626 | 72 | 300 | 1.0 | 3.0 | 0.00 | 0.00 | 0.00 | 46 | 1015.9 |